Location: Capel Gartheli
(52.1833°N, 4.0667°W)
Time: 04:18:27
(UTC+00:00)

MSX - Pass Details

Date: 18 February 2020
Orbit: 894 x 906 km, 98.8° (Epoch: 31 March)

Event Time Altitude Azimuth Distance (km) Brightness Sun altitude
Rises 03:46:21 0° 18° (NNE) 3,527 7.5 -33.8°
Reaches altitude 10° 03:48:51 10° 24° (NNE) 2,581 6.7 -33.4°
Maximum altitude 03:54:27 51° 100° (E) 1,116 4.4 -32.6°
Enters shadow 03:54:45 51° 111° (ESE) 1,123 4.4 -32.6°
